Regional Weather Roundup
Issued by NWS Cleveland, OH

Home | Current Version | Previous Version | Text Only | Print | Product List | Glossary Off
Versions: 1 2 3 4 5 6 7 8 9 10 11 12 13 14 15 16 17 18 19 20 21 22 23 24 25 26 27 28 29 30 31 32 33 34 35 36 37 38 39 40 41 42 43 44 45 46 47 48 49 50

000
ASUS41 KCLE 071600
RWRCLE
OHIO REGIONAL WEATHER ROUNDUP
NATIONAL WEATHER SERVICE WILMINGTON, OH
1100 AM EST WED DEC 07 2016

NOTE: "FAIR" INDICATES FEW OR NO CLOUDS BELOW 12,000 FEET WITH NO
SIGNIFICANT WEATHER AND/OR OBSTRUCTIONS TO VISIBILITY.

OHZ001>008-015>018-024>027-034-035-043-044-071700-
   NORTHWEST OHIO

CITY           SKY/WX    TMP DP  RH WIND       PRES   REMARKS
DEFIANCE       PTSUNNY   32  21  64 SW9G17    30.09R WCI  24
FINDLAY        FAIR      32  22  66 SW9       30.09S WCI  24
TOLEDO EXPRESS FAIR      30  23  75 SW12      30.08R WCI  20
TOLEDO EXEC    FAIR      32  25  75 SW14      30.08R WCI  22
LIMA           FAIR      31  23  72 SW14      30.11R WCI  21
$$

OHZ009>014-019>023-028>033-038-089-071700-
   NORTHEAST OHIO

CITY           SKY/WX    TMP DP  RH WIND       PRES   REMARKS
CLE-HOPKINS    FAIR      34  23  64 SW13      30.10S WCI  25
CLE-LAKEFRONT  FAIR      33  24  69 SW13      30.07F WCI  24
CUY CO. ARPT   PTSUNNY   34  27  75 W14       30.07S WCI  24
LORAIN-ELYRIA  FAIR      31  22  69 SW13      30.08F WCI  21
ASHTABULA      PTSUNNY   33  25  72 SW12      30.05S WCI  24
AKRON-CANTON   PTSUNNY   34  25  69 W13       30.08S WCI  25
WOOSTER        NOT AVBL
MANSFIELD      FAIR      32  22  66 SW10      30.08S WCI  24
YOUNGSTOWN     PTSUNNY   32  25  75 SW12      30.05S WCI  23
$$

OHZ042-051>053-060>062-070>072-077>081-071700-
  SOUTHWEST OHIO

CITY           SKY/WX    TMP DP  RH WIND       PRES   REMARKS
CINC-COVINGTON PTSUNNY   36  23  59 W8        30.19R
CINC-LUNKEN    FAIR      37  23  56 VRB5      30.22S
HAMILTON       FAIR      36  22  56 W8        30.21R
DAYTON         NOT AVBL
WRIGHT-PAT AFB NOT AVBL
DAYTON GENERAL FAIR      33  20  58 W5        30.16R WCI  29
WILMINGTON     FAIR      33  23  66 W7        30.16S WCI  27
$$

OHZ036-037-039>041-045>050-054>059-063>069-073>076-082>088-071700-
  CENTRAL AND SOUTHEAST OHIO

CITY           SKY/WX    TMP DP  RH WIND       PRES   REMARKS
COLUMBUS       FAIR      34  24  67 W9        30.16R WCI  27
OSU AIRPORT    FAIR      33  23  66 W12       30.15R WCI  24
BOLTON FIELD   SUNNY     34  23  64 W8        30.17R WCI  27
RICKENBACK AFB NOT AVBL
NEWARK         FAIR      33  24  69 SW12      30.15R WCI  24
MARION         FAIR      32  21  64 SW9       30.12R WCI  24
LANCASTER      FAIR      35  26  69 W8        30.17R WCI  29
ZANESVILLE     NOT AVBL
NEW PHILLY     FAIR      35  27  72 SW8       30.12R WCI  29
$$




USA.gov is the U.S. government's official web portal to all federal, state and local government web resources and services.